Wind_Speed
34 33 32 31 31 31 31 31 31 32 33 34 34 34 35 36 37 37 37 36 36 35 33 33 32 31 31 31 31 32 33 35 36 36 36 36 37 38 38 39 39 40 41 41 42 43 44 44 45 46 45 45 46 48 49 49 49 50 50 50 50 50 50
37 36 35 33 33 33 33 32 33 34 34 34 35 35 37 38 38 39 39 38 38 38 37 36 35 34 33 33 33 33 34 36 38 39 39 39 39 40 41 41 41 42 42 43 44 45 46 47 47 48 47 47 48 49 51 51 51 51 51 51 51 51 51
40 39 37 36 36 35 35 34 34 35 35 35 35 36 38 39 40 40 41 40 40 40 40 39 39 38 37 36 36 36 36 38 39 40 41 42 42 42 43 43 43 44 44 45 46 47 48 48 49 50 49 48 49 51 53 53 52 52 53 53 53 53 52
42 41 40 39 38 37 37 37 36 36 37 36 36 37 39 40 41 42 42 42 40 40 41 41 42 42 41 40 40 39 39 40 41 42 44 44 44 45 45 45 45 46 46 47 48 49 49 50 51 51 51 50 51 53 55 55 54 54 54 54 54 54 53
45 44 43 42 40 39 39 39 38 38 38 37 37 39 40 41 43 43 45 44 42 40 41 42 43 43 43 43 42 42 42 43 44 45 46 47 47 47 47 47 47 48 48 49 50 51 51 52 53 53 53 52 53 55 57 57 56 56 56 56 55 54 54
49 46 46 45 43 42 42 41 40 39 39 39 39 40 42 43 44 45 46 47 45 42 42 44 44 45 44 44 44 44 44 45 45 47 48 49 50 49 49 49 49 49 50 51 52 52 53 54 55 55 55 55 56 57 58 58 57 57 57 56 56 55 55
52 49 49 48 45 44 44 43 42 40 40 41 41 42 44 44 45 46 48 50 48 45 45 46 46 46 46 46 45 45 45 46 47 49 50 51 51 51 51 51 51 51 52 52 53 54 55 56 57 57 57 57 58 59 59 59 59 59 58 57 56 56 56
54 52 51 50 48 47 46 45 43 41 42 42 43 44 45 46 47 48 49 52 51 48 47 48 47 47 48 47 47 47 47 47 48 50 51 52 52 53 53 53 53 53 53 54 55 56 57 58 59 59 59 59 60 60 59 60 60 60 59 57 57 57 57
56 55 54 52 52 51 48 45 45 44 44 44 44 45 47 48 49 49 51 54 54 51 51 50 49 49 49 49 50 49 49 49 49 51 52 53 53 54 54 54 54 54 54 55 57 58 59 60 61 61 61 61 61 60 60 61 61 61 60 58 58 57 58
57 57 56 56 56 53 48 47 48 46 45 45 45 46 47 49 50 51 53 55 56 54 53 52 51 51 51 52 52 52 51 51 51 52 53 54 55 55 55 55 55 55 56 57 58 60 61 62 63 63 63 62 62 61 61 62 62 61 60 59 58 58 58
60 60 58 59 58 55 51 50 50 49 47 47 47 48 48 50 51 52 55 56 57 57 56 54 53 53 54 54 54 54 54 54 54 54 55 55 56 57 57 56 56 56 57 59 60 62 63 64 65 65 64 64 63 63 63 63 63 62 61 59 59 58 58
62 61 60 60 60 57 54 53 52 51 50 49 49 49 50 52 52 54 57 57 58 59 59 56 55 55 56 57 57 56 57 57 57 57 57 57 58 59 59 59 59 59 60 61 62 64 65 66 66 66 66 65 65 64 64 65 64 63 62 60 59 59 59
64 64 63 62 61 59 57 56 54 53 52 51 51 51 52 54 54 56 58 58 59 61 61 57 57 58 59 59 59 58 59 60 60 60 60 60 60 61 61 61 61 62 62 63 65 66 67 68 68 68 68 67 67 66 66 66 65 64 63 61 60 60 59
66 65 65 64 63 61 60 58 56 55 54 54 54 54 55 56 56 58 59 59 60 62 62 60 60 60 60 61 61 61 61 62 63 63 64 63 63 63 63 63 63 64 65 66 67 68 69 70 71 70 70 69 68 67 68 68 66 66 65 63 62 61 60
67 67 66 66 65 63 62 60 58 56 56 57 57 56 57 58 58 59 60 59 61 63 63 62 62 62 62 63 63 63 64 64 65 65 66 66 66 66 66 66 66 66 67 68 69 71 72 72 73 72 72 70 68 69 70 69 68 67 66 65 64 62 61
68 69 68 67 67 65 64 61 59 59 60 60 59 58 58 59 60 60 60 60 61 62 63 63 63 63 63 63 64 64 65 66 66 66 66 67 67 68 68 68 68 69 70 71 71 72 73 74 74 74 73 71 70 71 71 70 69 68 68 67 65 63 62
70 71 70 69 68 66 64 62 62 63 63 63 61 60 61 61 61 61 60 61 62 63 63 63 63 64 64 64 64 65 66 67 67 67 67 68 68 69 70 71 71 72 72 73 74 75 75 76 76 75 74 73 72 72 72 71 70 69 68 68 66 65 63
72 73 72 70 69 67 65 65 66 66 66 65 63 62 62 62 61 61 62 63 63 64 63 64 64 65 65 65 66 66 67 67 67 68 68 69 69 70 72 73 73 74 75 75 76 77 77 77 77 76 75 74 74 74 73 72 70 69 69 69 67 66 64
74 74 74 71 69 68 68 68 69 68 67 67 65 64 64 63 62 63 64 65 65 65 66 66 66 67 67 68 68 68 68 68 68 69 70 70 71 72 73 74 76 76 77 77 78 78 78 78 78 77 77 76 76 75 74 73 71 70 70 69 68 67 65
75 75 74 72 71 71 70 70 70 69 69 69 67 65 66 66 64 66 68 68 68 68 69 69 68 69 69 70 70 69 69 69 70 71 71 71 72 73 74 76 77 78 79 79 79 80 80 80 79 79 78 78 78 77 76 74 73 72 71 69 68 67 66
76 76 75 75 75 73 71 71 71 70 70 70 68 67 68 68 68 69 70 70 70 71 71 71 71 71 71 72 71 70 71 71 72 72 72 73 74 75 76 78 79 80 81 81 81 81 82 82 81 81 80 80 79 79 77 75 74 73 71 69 69 68 67
77 76 76 77 76 74 73 73 72 70 70 70 69 68 69 70 70 71 73 73 73 73 72 73 73 73 74 73 72 72 73 73 73 73 73 75 76 77 79 79 80 81 82 83 83 83 83 83 83 82 82 81 80 80 79 77 76 74 72 70 69 69 68
78 77 77 78 76 75 75 74 72 71 71 71 70 69 70 72 72 73 75 76 75 75 75 75 76 75 75 75 74 74 75 75 75 75 76 77 78 80 81 82 82 83 84 84 85 85 85 85 84 84 83 82 82 81 80 79 77 75 73 71 70 70 68
79 79 78 77 76 76 76 75 74 72 72 72 71 70 72 74 74 74 78 79 77 77 77 77 77 76 76 77 77 76 77 77 78 78 79 80 81 82 84 84 85 85 85 85 86 86 87 86 86 86 85 84 83 82 81 81 78 76 73 71 71 70 69
80 80 79 77 77 77 76 76 75 74 73 73 72 71 74 76 75 75 78 79 79 79 78 78 78 78 78 78 79 79 79 79 80 81 82 83 83 85 86 87 87 87 87 87 87 87 88 87 87 87 86 84 83 82 81 80 79 76 73 72 71 71 70
80 80 79 78 78 77 77 78 77 74 73 73 73 73 75 76 76 76 78 79 80 80 80 79 79 79 80 81 81 81 81 82 82 83 84 84 85 86 88 89 89 88 88 88 88 88 88 88 88 88 87 86 84 82 80 79 78 75 74 72 71 70 70
80 80 80 80 79 78 78 78 77 75 74 74 74 75 76 77 77 78 79 80 80 81 81 81 81 81 82 83 83 83 84 84 85 85 86 86 87 88 89 90 90 90 89 89 89 89 89 89 89 89 88 86 84 82 80 78 76 74 73 71 70 70 71
81 82 82 82 81 80 79 78 77 76 76 76 76 76 77 78 79 79 80 81 81 81 82 82 82 83 84 85 85 86 87 87 87 87 88 88 88 89 90 91 91 90 90 90 90 90 90 90 90 89 88 86 84 82 80 78 76 74 72 71 71 71 72
83 84 84 84 82 81 80 79 78 78 78 78 77 78 78 79 80 80 81 81 82 83 83 84 84 85 86 87 87 88 89 89 89 89 89 89 90 91 91 92 92 92 92 92 92 91 91 91 90 89 88 86 84 82 80 78 76 74 73 72 72 72 73
85 85 85 84 83 82 81 81 80 79 79 79 80 80 80 81 82 82 83 83 84 85 85 86 86 87 87 88 89 89 89 90 90 90 90 91 92 92 93 93 93 93 93 93 92 92 92 91 90 89 88 86 84 82 79 77 76 75 74 75 75 75 76
86 87 86 83 83 84 84 83 82 81 81 81 82 82 83 83 84 84 84 85 86 86 87 88 88 89 89 89 90 90 90 90 90 91 92 92 93 94 95 95 94 94 93 93 93 92 92 90 89 88 87 86 84 80 76 75 75 75 76 76 78 78 79
88 89 87 84 85 87 87 85 84 83 83 83 84 84 85 85 85 85 85 86 86 87 88 88 89 90 90 90 91 91 91 92 92 92 93 94 95 96 96 96 95 94 94 94 94 93 91 90 89 88 86 84 82 78 75 75 76 77 78 79 80 81 82
90 91 88 86 87 88 87 87 86 86 86 86 86 86 86 87 87 87 86 86 87 87 88 89 90 91 92 92 93 93 93 94 95 95 95 95 96 96 96 95 95 96 96 96 94 92 91 89 88 86 84 82 79 77 76 76 77 78 80 81 83 84 85
91 90 88 87 88 88 88 89 89 88 88 89 88 88 88 88 88 88 88 88 88 88 89 90 91 93 94 95 95 96 96 96 96 96 96 96 96 96 96 96 96 97 97 95 93 91 89 87 85 83 81 80 78 77 78 78 79 80 82 84 86 87 88
91 90 89 88 89 90 91 92 91 90 90 90 90 90 90 90 90 91 90 90 90 91 92 93 94 96 97 97 98 98 98 97 97 97 97 97 98 98 98 98 97 96 95 94 92 89 87 84 82 80 79 78 78 79 80 81 82 83 84 86 88 89 90
91 90 90 90 91 92 93 94 94 92 92 91 91 92 92 92 92 93 93 93 94 94 95 96 97 98 99 100 100 99 99 98 98 98 98 98 99 99 99 99 97 96 94 91 89 86 83 81 79 79 78 79 80 82 83 84 85 86 87 88 90 91 92
91 91 90 91 92 93 94 94 94 94 94 94 94 95 94 94 95 95 95 96 96 97 97 97 99 100 100 101 101 100 99 99 99 99 99 99 99 99 98 98 96 94 91 88 85 83 81 79 79 79 80 82 83 84 86 87 88 89 90 91 92 93 94
Wind_Direction
259 261 263 265 268 271 274 277 280 283 285 288 293 296 297 299 301 303 305 307 309 312 315 317 318 320 322 324 327 328 329 329 329 331 331 330 328 326 326 326 327 327 328 329 328 328 329 330 331 330 327 323 321 320 319 317 314 312 310 308 307 306 305
257 259 261 264 266 269 272 274 277 279 282 285 289 292 295 297 299 300 302 304 306 309 312 313 315 316 318 320 323 325 326 327 327 328 329 329 327 326 325 325 325 325 326 327 327 327 328 329 330 329 327 324 321 320 319 318 316 313 311 309 308 306 305
256 258 261 262 264 267 270 272 274 276 279 282 286 289 291 294 296 298 299 300 303 306 309 310 312 314 316 318 320 321 323 324 325 326 326 327 326 325 325 325 324 324 324 325 326 326 327 327 328 329 327 324 321 320 320 320 318 315 313 311 309 307 306
256 258 260 262 263 266 268 270 272 274 276 279 282 285 287 290 292 294 296 297 300 303 305 306 309 311 314 316 317 319 320 322 323 323 324 324 324 324 324 324 323 322 323 324 324 325 325 326 327 328 327 324 322 320 321 322 320 317 314 312 310 309 307
255 257 260 262 264 265 266 268 270 272 274 276 279 282 284 287 289 291 293 295 297 299 301 302 305 308 311 313 315 316 318 319 320 321 322 322 323 323 323 322 322 321 321 322 324 324 324 324 326 327 326 324 322 322 322 323 321 318 316 314 312 310 309
255 257 259 261 263 264 266 268 269 271 273 275 277 279 282 284 287 289 291 293 294 296 298 299 301 305 307 309 311 313 315 316 318 319 320 321 321 322 321 321 320 320 320 322 323 323 322 323 324 326 325 323 322 322 323 323 321 319 317 315 313 311 310
255 256 258 260 262 264 266 266 268 271 273 275 276 278 280 283 285 287 289 290 292 294 295 296 299 302 305 307 308 310 312 314 316 317 318 319 320 320 320 320 319 319 320 321 321 321 321 322 323 325 324 323 322 322 322 322 321 319 318 316 314 312 311
254 256 257 260 262 263 264 266 268 270 272 274 275 277 279 281 283 286 287 288 290 293 293 295 298 300 303 304 306 307 309 311 314 315 316 317 318 318 319 319 318 318 319 319 320 320 320 321 322 323 323 322 321 322 322 321 320 319 318 317 315 313 312
254 255 257 259 260 261 264 267 268 269 270 272 274 276 278 280 282 284 285 286 289 291 292 294 297 299 301 303 304 306 307 310 311 313 314 314 315 316 317 317 316 317 317 318 318 319 319 320 321 322 322 321 321 321 321 320 319 319 318 317 315 313 312
254 255 256 258 259 262 265 266 267 268 269 272 273 275 277 279 281 282 283 284 287 290 291 293 296 298 300 301 303 304 306 308 309 310 311 312 313 314 315 315 315 315 316 316 317 317 318 319 320 321 321 320 320 320 320 319 320 319 318 317 315 313 312
253 254 255 257 259 261 263 265 266 267 269 271 273 274 276 277 279 280 281 284 286 288 290 293 296 298 299 300 302 304 305 306 307 308 310 311 311 312 313 314 314 314 314 315 316 316 317 318 318 320 320 319 319 319 319 319 320 319 318 317 315 313 311
253 254 255 256 258 260 262 264 265 267 269 271 273 274 275 276 277 279 280 283 285 287 289 292 295 296 297 299 301 303 304 305 306 307 308 309 310 311 312 313 313 314 314 314 315 315 316 317 317 318 319 319 319 319 319 319 320 319 318 317 315 313 311
253 254 254 256 258 260 261 263 265 267 269 271 272 273 274 275 277 278 280 283 285 285 289 293 294 295 296 299 301 302 302 303 305 306 307 309 310 310 311 312 312 312 313 313 313 314 315 316 316 317 318 318 319 318 318 319 320 318 317 316 314 312 310
253 254 255 256 257 259 261 263 265 267 269 271 272 272 273 274 276 278 280 283 284 285 289 293 293 294 296 298 300 301 302 303 304 305 307 308 309 309 310 310 311 311 311 312 313 313 314 315 316 317 317 318 318 317 317 319 319 318 316 315 313 312 310
253 254 255 256 258 259 261 263 265 267 269 270 271 272 273 275 277 279 281 283 283 286 290 292 293 294 296 297 299 300 301 302 303 304 306 307 308 308 308 309 309 310 310 311 312 312 313 314 315 316 317 317 317 316 316 318 318 317 315 314 313 311 309
254 254 255 257 258 260 262 264 266 268 269 270 271 272 273 274 277 279 281 283 283 286 289 291 292 293 294 295 297 298 299 301 302 302 303 305 305 306 307 307 308 309 310 310 311 312 313 313 314 315 316 316 315 314 315 316 316 316 314 313 312 311 309
254 255 256 257 259 261 263 265 267 267 268 270 272 272 273 274 277 279 281 282 283 285 287 289 289 290 291 293 294 296 297 298 299 300 301 302 303 304 305 306 307 308 309 310 310 311 312 313 313 314 314 314 313 313 314 315 315 314 313 312 311 310 309
253 255 256 258 260 262 264 265 266 267 269 271 272 272 273 275 277 278 279 279 281 283 285 285 286 287 289 290 292 294 295 297 298 299 300 301 302 303 304 305 306 307 308 309 310 310 311 312 312 313 313 312 312 313 313 314 314 313 312 311 310 309 307
254 255 257 259 261 262 263 264 266 268 269 271 271 272 273 275 276 276 277 278 280 281 282 282 283 285 287 289 291 293 295 296 296 298 299 300 301 302 303 304 305 306 306 308 308 309 310 310 311 311 311 311 311 312 312 313 312 312 311 310 309 307 306
254 256 258 259 260 261 262 264 266 268 269 270 271 272 273 274 275 275 276 278 279 280 280 282 283 285 287 289 291 293 294 295 296 297 298 299 300 301 301 302 303 304 305 306 307 308 309 310 310 311 311 311 311 311 312 312 311 310 310 309 307 305 304
253 255 258 259 260 260 262 264 265 267 269 270 271 272 273 274 274 275 276 277 278 279 280 282 283 285 287 289 291 292 293 294 295 297 297 298 299 300 300 301 302 303 304 306 306 307 308 309 310 310 310 310 311 311 311 311 310 309 309 308 306 304 304
253 254 257 259 260 262 263 263 265 267 268 269 270 271 273 274 275 276 276 277 278 279 281 282 284 286 287 289 290 291 292 294 295 296 297 297 298 299 299 300 301 302 303 305 305 306 307 308 309 310 310 310 310 310 309 309 308 308 308 307 305 304 303
254 255 256 258 260 262 263 263 264 265 266 268 270 271 272 273 275 276 277 277 279 280 281 282 284 286 287 288 290 291 292 293 295 295 296 297 297 298 299 299 300 301 302 303 304 305 306 307 308 308 309 309 309 308 308 308 307 307 307 306 304 303 303
254 255 256 258 260 261 262 263 263 264 266 267 269 271 272 273 274 276 277 278 279 280 281 282 284 286 287 288 289 290 292 293 294 294 295 296 296 297 298 298 299 300 301 303 304 305 306 306 307 307 308 308 308 308 307 306 306 307 306 305 304 303 303
254 256 257 258 259 260 261 262 263 264 266 267 269 270 271 273 274 275 276 278 279 280 281 282 284 285 286 287 288 290 291 292 292 293 294 294 295 296 297 298 299 300 301 302 303 304 305 306 306 306 307 307 307 306 306 305 306 306 305 304 303 303 303
254 256 257 257 257 259 261 262 263 265 266 267 269 270 270 272 273 274 275 276 278 280 281 283 284 285 285 286 288 289 290 290 291 292 292 293 294 295 296 297 298 300 301 302 303 303 304 305 305 305 305 306 306 305 304 304 304 304 303 303 303 302 302
254 255 256 256 257 258 260 262 263 265 266 267 268 269 270 271 272 273 274 276 278 279 281 282 284 284 285 286 287 288 289 289 290 291 292 293 294 294 295 296 298 299 300 301 302 303 303 303 304 304 304 304 304 303 303 302 302 301 301 301 301 301 301
254 254 255 256 258 258 260 261 263 264 265 266 267 268 269 271 272 273 275 276 277 279 280 281 282 283 285 286 287 287 288 288 289 290 291 292 293 294 294 295 297 298 299 300 301 301 302 302 303 303 303 303 302 302 301 301 300 300 300 300 300 300 300
253 254 255 257 258 259 260 261 262 263 264 265 266 268 269 270 272 273 274 276 277 278 279 281 282 283 284 285 286 286 287 288 289 290 291 291 292 292 293 295 296 297 298 299 300 300 301 301 302 301 301 301 301 301 300 300 300 299 299 300 300 300 300
253 254 256 257 258 259 259 260 261 262 264 265 267 268 269 270 271 273 274 275 276 278 279 280 281 282 283 283 284 285 286 287 288 289 290 291 291 292 293 294 296 297 298 298 299 300 300 300 300 300 300 300 300 300 300 300 300 299 299 300 300 300 301
252 253 255 256 257 258 259 260 261 262 264 265 266 268 269 270 271 272 274 275 276 277 278 279 280 281 282 282 283 284 285 286 287 288 289 290 291 292 293 295 296 297 297 298 298 299 299 299 299 298 299 299 299 299 299 299 298 298 299 299 300 300 301
252 253 254 255 257 259 260 261 262 263 264 265 266 267 269 270 271 272 273 274 275 276 278 279 279 280 281 282 282 283 284 285 286 287 288 289 290 291 293 295 295 296 296 297 297 297 297 297 297 297 298 298 297 298 298 298 298 298 298 299 299 300 301
252 253 255 256 257 259 260 261 262 263 264 265 266 267 268 269 270 272 273 273 274 275 276 277 278 279 280 280 281 282 283 284 285 286 287 288 290 291 292 293 294 294 295 295 296 296 296 296 296 296 296 296 296 296 296 297 297 298 298 298 299 299 300
253 254 255 256 257 259 260 261 262 263 264 265 266 267 268 269 270 271 272 273 274 275 275 276 277 278 278 279 280 281 282 283 284 286 287 288 289 290 291 292 292 293 294 295 295 295 295 295 295 295 295 295 295 295 295 296 297 297 297 298 298 299 300
253 254 255 256 257 259 260 261 262 263 264 265 266 267 268 269 270 271 272 273 273 274 275 276 276 277 278 279 280 281 282 283 284 285 287 288 288 289 290 291 292 293 293 293 294 294 293 293 293 293 294 294 294 294 295 295 296 296 297 298 298 299 300
253 254 255 256 258 259 261 262 263 264 265 265 266 267 268 269 270 271 271 272 273 274 275 276 277 277 278 279 280 281 282 283 284 285 286 287 288 289 290 291 292 292 292 292 292 292 292 292 292 293 293 293 293 294 294 295 295 296 297 297 298 299 300
253 255 256 257 258 259 260 262 263 264 265 265 266 267 267 268 269 270 271 272 274 274 275 276 277 277 278 280 281 282 283 283 285 286 286 287 288 289 290 291 291 291 291 291 291 291 291 292 292 292 293 293 293 293 294 295 295 296 296 297 298 298 299
Height
10967 10967 10968 10968 10968 10968 10968 10968 10967 10967 10966 10964 10964 10962 10961 10960 10958 10957 10956 10956 10956 10956 10957 10957 10956 10956 10955 10955 10954 10953 10951 10948 10947 10947 10946 10944 10943 10940 10938 10936 10934 10931 10929 10926 10924 10921 10919 10917 10914 10912 10909 10905 10902 10900 10897 10894 10891 10889 10886 10883 10880 10878 10875
10962 10962 10963 10964 10964 10964 10964 10964 10964 10963 10963 10962 10961 10959 10958 10956 10955 10953 10952 10952 10951 10951 10951 10951 10951 10952 10951 10951 10950 10949 10948 10946 10944 10943 10942 10941 10940 10938 10936 10933 10931 10928 10925 10923 10920 10917 10915 10913 10910 10908 10905 10902 10898 10895 10893 10890 10887 10884 10881 10878 10875 10872 10870
10957 10957 10958 10959 10960 10960 10960 10960 10960 10960 10959 10959 10958 10956 10955 10953 10951 10950 10949 10948 10948 10947 10945 10945 10945 10945 10946 10946 10946 10945 10944 10943 10941 10939 10938 10938 10937 10935 10932 10930 10927 10924 10922 10919 10917 10914 10911 10909 10906 10904 10901 10897 10894 10891 10888 10885 10882 10878 10875 10872 10869 10866 10863
10952 10952 10953 10954 10955 10956 10956 10956 10956 10956 10955 10955 10955 10953 10952 10950 10948 10946 10945 10944 10945 10945 10943 10941 10939 10939 10940 10940 10940 10940 10939 10939 10938 10936 10935 10934 10933 10931 10928 10926 10923 10920 10918 10915 10912 10910 10907 10905 10902 10900 10897 10893 10890 10887 10883 10880 10876 10872 10869 10865 10863 10860 10857
10946 10947 10947 10948 10950 10951 10951 10951 10952 10952 10951 10951 10951 10950 10948 10947 10945 10943 10941 10940 10942 10943 10941 10938 10937 10936 10936 10936 10935 10935 10934 10934 10933 10932 10930 10929 10927 10926 10924 10922 10919 10916 10913 10911 10908 10905 10902 10900 10897 10895 10892 10888 10885 10881 10877 10874 10870 10866 10862 10859 10856 10853 10850
10940 10942 10942 10943 10945 10946 10946 10946 10946 10947 10947 10947 10946 10945 10944 10943 10941 10939 10936 10934 10937 10940 10938 10936 10934 10934 10934 10933 10932 10931 10930 10929 10928 10927 10925 10924 10922 10921 10919 10917 10915 10912 10909 10906 10903 10900 10897 10894 10892 10889 10886 10883 10879 10875 10871 10868 10864 10861 10857 10853 10850 10847 10843
10934 10937 10937 10937 10939 10940 10940 10941 10941 10942 10942 10941 10941 10940 10939 10938 10937 10935 10932 10929 10931 10934 10934 10932 10931 10930 10930 10930 10929 10928 10927 10925 10924 10922 10920 10918 10916 10915 10913 10911 10909 10907 10904 10901 10898 10895 10892 10889 10886 10884 10881 10877 10873 10869 10866 10862 10859 10855 10851 10847 10844 10840 10836
10929 10931 10931 10932 10934 10934 10934 10936 10936 10937 10937 10936 10936 10935 10934 10933 10932 10931 10928 10923 10924 10928 10928 10927 10928 10926 10926 10926 10925 10924 10923 10922 10920 10917 10915 10913 10911 10909 10907 10906 10904 10901 10899 10896 10893 10890 10886 10883 10881 10878 10875 10871 10867 10864 10860 10857 10853 10848 10845 10841 10838 10834 10830
10924 10925 10926 10927 10926 10926 10929 10931 10931 10931 10932 10931 10931 10930 10929 10928 10926 10926 10923 10918 10919 10921 10921 10922 10923 10922 10921 10920 10919 10919 10918 10918 10916 10913 10911 10909 10907 10905 10903 10901 10898 10896 10894 10891 10888 10884 10881 10878 10875 10873 10870 10866 10862 10859 10855 10851 10847 10843 10839 10836 10832 10828 10824
10919 10919 10919 10919 10919 10921 10925 10926 10925 10926 10926 10926 10926 10925 10924 10922 10921 10920 10917 10914 10913 10914 10915 10916 10917 10916 10916 10915 10914 10913 10912 10912 10911 10909 10906 10904 10901 10900 10899 10897 10894 10892 10889 10886 10883 10880 10876 10873 10870 10867 10864 10860 10856 10853 10850 10846 10842 10838 10834 10830 10826 10822 10819
10911 10912 10913 10913 10912 10916 10919 10919 10919 10920 10921 10921 10921 10920 10919 10917 10916 10914 10911 10909 10908 10906 10908 10911 10910 10909 10909 10908 10907 10907 10906 10905 10905 10904 10902 10899 10896 10894 10892 10891 10889 10887 10884 10880 10877 10874 10871 10867 10864 10861 10858 10854 10851 10848 10844 10840 10836 10832 10828 10825 10821 10817 10813
10903 10905 10907 10907 10907 10910 10912 10912 10913 10914 10915 10916 10915 10914 10913 10911 10911 10909 10905 10904 10903 10899 10901 10905 10905 10903 10902 10901 10901 10900 10898 10897 10897 10896 10895 10894 10891 10888 10885 10884 10882 10880 10877 10874 10871 10868 10865 10861 10858 10855 10852 10848 10845 10842 10838 10834 10830 10826 10823 10819 10815 10811 10807
10896 10898 10900 10901 10901 10903 10905 10906 10908 10908 10909 10909 10909 10909 10907 10905 10905 10903 10900 10900 10897 10892 10894 10899 10898 10897 10896 10895 10894 10893 10891 10890 10889 10888 10887 10886 10885 10882 10880 10877 10875 10873 10871 10868 10865 10862 10858 10855 10852 10849 10845 10842 10838 10834 10830 10827 10823 10819 10816 10813 10809 10805 10801
10889 10890 10892 10894 10895 10897 10898 10900 10902 10902 10903 10903 10902 10902 10901 10899 10899 10897 10895 10895 10892 10887 10889 10891 10890 10890 10890 10888 10886 10885 10884 10882 10881 10879 10877 10877 10876 10874 10873 10871 10869 10867 10864 10862 10858 10855 10851 10848 10844 10841 10837 10834 10830 10826 10823 10820 10817 10813 10809 10806 10803 10799 10795
10882 10884 10885 10886 10888 10889 10891 10894 10896 10897 10896 10895 10895 10896 10895 10893 10892 10891 10890 10890 10887 10883 10883 10884 10883 10883 10882 10880 10878 10878 10876 10875 10873 10871 10869 10868 10867 10866 10865 10863 10862 10860 10857 10855 10851 10848 10844 10840 10836 10833 10829 10826 10823 10819 10816 10813 10810 10806 10802 10799 10796 10792 10789
10875 10876 10877 10879 10880 10882 10885 10888 10890 10889 10888 10887 10888 10889 10889 10887 10886 10886 10885 10884 10881 10880 10880 10878 10876 10877 10875 10873 10872 10871 10870 10869 10867 10865 10863 10861 10859 10858 10856 10855 10854 10852 10850 10847 10844 10841 10837 10833 10829 10826 10822 10819 10816 10812 10809 10807 10803 10799 10795 10791 10788 10785 10782
10867 10867 10869 10871 10873 10876 10880 10882 10881 10879 10879 10880 10882 10882 10881 10881 10881 10880 10879 10877 10876 10876 10876 10873 10871 10870 10869 10869 10867 10866 10865 10864 10862 10860 10858 10855 10853 10850 10848 10846 10845 10844 10842 10839 10837 10833 10830 10826 10822 10819 10816 10812 10809 10805 10803 10800 10797 10793 10788 10784 10781 10778 10775
10859 10859 10861 10864 10867 10870 10874 10874 10871 10870 10871 10873 10874 10875 10874 10874 10875 10875 10872 10871 10871 10872 10871 10869 10866 10864 10863 10863 10863 10862 10861 10859 10857 10855 10852 10850 10847 10844 10841 10839 10837 10836 10834 10832 10829 10826 10822 10819 10815 10811 10808 10805 10801 10799 10796 10794 10790 10786 10781 10777 10773 10770 10767
10852 10852 10854 10858 10862 10864 10864 10863 10862 10863 10864 10864 10866 10868 10867 10867 10868 10867 10864 10865 10866 10866 10864 10862 10860 10859 10858 10857 10856 10857 10856 10853 10851 10849 10846 10844 10841 10838 10835 10832 10829 10827 10825 10823 10821 10818 10815 10812 10808 10804 10801 10797 10794 10792 10789 10786 10783 10779 10774 10770 10766 10762 10759
10846 10846 10848 10852 10853 10854 10855 10854 10854 10855 10855 10855 10859 10861 10859 10858 10860 10858 10856 10858 10859 10857 10856 10856 10854 10853 10852 10851 10850 10850 10848 10846 10844 10842 10840 10838 10835 10831 10828 10825 10822 10819 10817 10815 10813 10810 10806 10803 10800 10797 10793 10789 10786 10783 10781 10778 10774 10770 10767 10763 10758 10753 10751
10840 10841 10843 10842 10841 10845 10847 10847 10846 10847 10847 10848 10852 10853 10850 10849 10851 10850 10848 10849 10849 10848 10849 10848 10847 10847 10845 10844 10845 10844 10840 10838 10838 10836 10834 10831 10828 10825 10821 10818 10815 10811 10809 10806 10804 10801 10798 10794 10791 10788 10785 10781 10777 10774 10772 10769 10765 10762 10759 10755 10750 10745 10742
10832 10836 10835 10831 10833 10837 10838 10838 10838 10840 10840 10840 10843 10845 10841 10839 10841 10840 10838 10839 10840 10840 10841 10839 10839 10839 10837 10836 10837 10836 10832 10831 10831 10829 10827 10824 10821 10817 10814 10811 10808 10804 10801 10798 10796 10793 10790 10786 10783 10779 10776 10772 10769 10765 10763 10760 10757 10753 10751 10747 10741 10736 10734
10824 10828 10827 10824 10827 10828 10827 10828 10831 10833 10833 10833 10835 10837 10833 10830 10831 10830 10827 10828 10831 10831 10832 10831 10830 10830 10828 10827 10828 10827 10824 10822 10822 10820 10818 10816 10813 10810 10807 10804 10801 10797 10794 10791 10788 10785 10782 10778 10775 10771 10768 10765 10761 10757 10753 10750 10747 10745 10742 10738 10732 10727 10725
10815 10817 10817 10818 10819 10818 10817 10819 10822 10825 10826 10826 10828 10830 10825 10820 10823 10822 10817 10817 10821 10822 10822 10822 10822 10822 10820 10817 10817 10818 10816 10814 10812 10811 10809 10807 10804 10801 10799 10796 10793 10790 10787 10784 10780 10777 10773 10770 10766 10763 10760 10757 10753 10749 10744 10740 10737 10735 10733 10728 10723 10719 10716
10805 10806 10809 10811 10809 10807 10809 10810 10812 10816 10819 10818 10819 10822 10817 10812 10814 10814 10809 10807 10810 10812 10813 10813 10813 10812 10811 10808 10807 10808 10807 10804 10802 10801 10799 10797 10795 10792 10789 10786 10783 10781 10778 10775 10771 10768 10764 10760 10757 10753 10751 10748 10745 10741 10736 10731 10728 10726 10723 10719 10715 10710 10707
10796 10796 10798 10799 10798 10800 10801 10801 10803 10809 10810 10809 10810 10811 10808 10805 10806 10805 10802 10799 10800 10801 10802 10803 10803 10802 10801 10799 10798 10797 10797 10795 10792 10791 10789 10787 10785 10782 10779 10776 10773 10771 10769 10766 10762 10759 10755 10751 10747 10744 10741 10739 10736 10733 10728 10723 10720 10717 10713 10711 10708 10703 10699
10786 10786 10786 10786 10789 10793 10794 10792 10795 10801 10801 10800 10800 10800 10799 10798 10797 10795 10794 10793 10792 10792 10792 10793 10793 10791 10790 10789 10788 10786 10785 10783 10782 10780 10779 10777 10775 10773 10770 10766 10764 10761 10759 10756 10753 10750 10746 10742 10738 10735 10732 10729 10726 10723 10720 10716 10713 10709 10706 10703 10700 10696 10692
10775 10775 10775 10775 10779 10786 10787 10785 10787 10790 10791 10791 10791 10790 10790 10790 10788 10787 10786 10785 10784 10784 10783 10783 10783 10781 10779 10777 10776 10774 10772 10772 10771 10770 10768 10767 10765 10763 10760 10757 10755 10753 10750 10747 10744 10741 10737 10733 10729 10725 10722 10720 10717 10714 10711 10707 10704 10701 10698 10695 10692 10688 10684
10764 10764 10764 10767 10771 10776 10778 10778 10778 10780 10781 10782 10783 10782 10781 10781 10779 10779 10779 10777 10776 10775 10774 10774 10773 10771 10769 10766 10764 10762 10760 10759 10759 10758 10758 10756 10754 10752 10750 10748 10747 10744 10741 10738 10735 10732 10728 10724 10719 10715 10712 10709 10707 10705 10702 10697 10694 10690 10687 10685 10682 10679 10676
10755 10753 10755 10760 10764 10765 10766 10767 10770 10771 10772 10773 10774 10774 10773 10771 10770 10770 10770 10769 10768 10766 10766 10765 10764 10762 10760 10757 10754 10753 10751 10748 10747 10746 10745 10744 10742 10741 10740 10739 10737 10734 10731 10728 10725 10722 10718 10714 10710 10705 10702 10699 10697 10695 10693 10688 10684 10680 10677 10674 10671 10669 10666
10744 10743 10747 10752 10753 10752 10754 10757 10761 10764 10764 10764 10764 10764 10763 10762 10761 10761 10761 10760 10759 10758 10756 10755 10753 10752 10751 10749 10746 10744 10743 10741 10739 10737 10735 10733 10730 10729 10728 10728 10726 10723 10720 10717 10715 10711 10708 10704 10699 10695 10692 10689 10686 10685 10684 10681 10675 10671 10668 10665 10662 10659 10657
10733 10732 10740 10746 10742 10741 10745 10749 10752 10755 10755 10755 10754 10754 10753 10753 10753 10753 10753 10752 10751 10749 10747 10745 10743 10740 10739 10738 10736 10734 10733 10732 10730 10729 10727 10724 10721 10719 10717 10717 10715 10712 10709 10706 10704 10701 10698 10694 10689 10686 10682 10679 10677 10675 10674 10671 10666 10662 10659 10656 10653 10650 10648
10722 10723 10734 10739 10734 10733 10737 10739 10742 10744 10745 10745 10745 10744 10744 10744 10744 10744 10744 10744 10743 10741 10738 10735 10732 10730 10728 10727 10725 10724 10724 10722 10721 10720 10718 10716 10713 10711 10709 10707 10705 10701 10698 10695 10693 10690 10687 10683 10679 10676 10672 10669 10667 10665 10663 10661 10657 10654 10650 10647 10643 10641 10638
10712 10717 10726 10729 10725 10724 10727 10729 10731 10733 10734 10734 10734 10735 10735 10734 10734 10734 10734 10733 10733 10731 10727 10725 10723 10719 10717 10715 10714 10714 10715 10713 10711 10709 10708 10707 10705 10702 10700 10698 10695 10691 10687 10684 10682 10679 10676 10673 10670 10666 10663 10660 10658 10655 10653 10651 10648 10645 10642 10638 10633 10631 10628
10703 10708 10716 10718 10716 10715 10716 10717 10719 10722 10724 10724 10723 10724 10725 10724 10723 10723 10723 10722 10722 10720 10716 10715 10713 10709 10706 10704 10704 10704 10705 10703 10701 10700 10698 10696 10694 10691 10690 10688 10685 10682 10678 10674 10671 10668 10666 10663 10660 10657 10654 10651 10648 10646 10643 10641 10639 10636 10633 10629 10624 10621 10618
10695 10699 10705 10709 10708 10707 10705 10704 10707 10711 10714 10714 10713 10712 10713 10713 10710 10710 10711 10711 10710 10709 10706 10704 10702 10698 10695 10693 10692 10693 10693 10692 10691 10690 10688 10686 10683 10680 10678 10675 10673 10670 10667 10664 10661 10658 10655 10653 10650 10648 10645 10642 10639 10636 10633 10631 10629 10626 10623 10619 10615 10611 10608
10688 10692 10696 10698 10697 10697 10695 10695 10697 10700 10701 10702 10701 10699 10701 10701 10699 10699 10700 10700 10699 10698 10696 10693 10690 10686 10684 10682 10681 10680 10681 10680 10680 10679 10677 10675 10672 10670 10667 10664 10661 10658 10655 10652 10649 10647 10644 10643 10640 10638 10636 10633 10630 10627 10623 10620 10618 10615 10612 10609 10605 10601 10598